{"data":{"norad_id":67027,"intl_designator":"2025-293AA","name":"STARLINK-36171","alt_names":[],"object_type":"PAYLOAD","status":"ACTIVE","operator":null,"country":"US","launch_date":"2025-12-10","launch_site_code":"AFWTR","launch_vehicle":null,"mission":null,"orbit_class":"UNKNOWN","rcs_meters":null,"size_class":null,"mass_kg":null,"dimensions":null,"purposes":["comms"],"wikipedia_slug":null,"has_3d_model":false,"image_url":null,"decayed_at":null,"tle_current":{"epoch":"2026-05-24T17:50:00.857472Z","epoch_age_seconds":94084,"freshness":"FRESH","line1":"1 67027U 25293AA  26144.74306548  .00005577  00000+0  47458-3 0  9991","line2":"2 67027  70.0007 262.5442 0003198 267.4641  92.6152 14.98350108 26286","mean_motion":14.98350108,"eccentricity":0.0003198,"inclination_deg":70.0007,"raan_deg":262.5442,"arg_perigee_deg":267.4641,"mean_anomaly_deg":92.6152,"bstar":0.00047458,"rev_number":2628,"period_min":96.105709360686,"perigee_km":569.77105750771,"apogee_km":574.21636110938,"semimajor_km":6950.1307093085,"source":"CELESTRAK","updated_at":"2026-05-25T13:38:21.434780Z"}}}